This demonstration page uses our WeatherBlox Daily Observations layout. Learn more.

Left ArrowRight Arrow

Hourly Observations for October 9, 2018

Temp ( °F °C ) Dew Point ( °F °C ) Humidity (%) Winds ( mph kmh ) Pressure ( in mb ) Visibility ( mi km ) Precip ( " mm )
12:31 am 00:31 Cloudy with Light Rain 46 7.8 45 7.2 96 96 N 10 17 30.00 1016 4 6 0.01 0.25
12:53 am 00:53 Cloudy with Mist and Fog 46 7.8 45 7.2 96 96 N 10 17 29.98 1015 5 8 0.02 0.51
1:49 am 01:49 Cloudy 46 8 45 7 93 93 N 12 19 30.00 1016 10 16 0.00 0.00
1:53 am 01:53 Cloudy 46 7.8 45 7.2 96 96 N 10 17 29.98 1015 10 16 0.00 0.00
2:28 am 02:28 Cloudy with Rain 46 7.8 45 7.2 96 96 N 12 19 30.00 1016 3 5 0.03 0.76
2:53 am 02:53 Cloudy with Light Rain 46 7.8 45 7.2 96 96 NNW 12 19 29.98 1015 5 8 0.05 1.27
3:35 am 03:35 Cloudy with Light Rain 46 7.8 45 7.2 96 96 N 13 20 29.97 1015 10 16 0.02 0.51
3:44 am 03:44 Cloudy with Light Rain 46 7.8 45 7.2 96 96 N 12 19 29.97 1015 8 13 0.02 0.51
3:53 am 03:53 Cloudy with Light Rain 46 7.8 45 7.2 96 96 N 10 17 29.96 1014 9 14 0.02 0.51
4:11 am 04:11 Cloudy with Light Rain 46 7.8 45 7.2 96 96 N 10 17 29.97 1015 7 11 0.01 0.25
4:53 am 04:53 Cloudy with Light Rain 46 7.8 45 7.2 96 96 N 12 19 29.95 1014 4 6 0.06 1.52
5:21 am 05:21 Cloudy with Light Rain 46 7.8 45 7.2 96 96 N 14 22 29.97 1015 3 5 0.03 0.76
5:32 am 05:32 Cloudy with Heavy Rain 46 8 45 7 93 93 N 14 22 29.97 1015 2 3 0.00 0.00
5:46 am 05:46 Cloudy with Rain 46 8 45 7 93 93 N 13 20 29.97 1015 4 6 0.00 0.00
5:53 am 05:53 Cloudy with Light Rain 46 7.8 45 7.2 96 96 N 15 24 29.96 1015 4 6 0.10 2.54
6:32 am 06:32 Cloudy with Light Rain 45 7 45 7 100 100 N 16 26 29.97 1015 6 10 0.00 0.00
6:53 am 06:53 Cloudy with Rain 45 7.2 44 6.7 97 97 N 15 24 29.96 1015 3 5 0.04 1.02
7:51 am 07:51 Cloudy with Heavy Rain 45 7 45 7 100 100 N 15 24 29.97 1015 3 4 0.11 2.79
7:52 am 07:52 Cloudy with Heavy Rain 45 7.2 44 6.7 97 97 N 16 26 29.95 1014 3 4 0.12 3.05
8:00 am 08:00 Cloudy with Rain 45 7 45 7 100 100 N 16 26 29.97 1015 3 5 0.00 0.00
8:18 am 08:18 Mostly Cloudy with Light Rain 45 7.2 44 6.7 97 97 NNE 15 24 29.97 1015 4 6 0.03 0.76
8:26 am 08:26 Mostly Cloudy with Rain 45 7.2 44 6.7 97 97 NNE 15 24 29.97 1015 3 4 0.04 1.02
8:53 am 08:53 Cloudy with Light Rain 45 7.2 44 6.7 97 97 N 15 24 29.94 1014 3 5 0.07 1.78
9:02 am 09:02 Cloudy with Rain 45 7 45 7 100 100 N 15 24 29.97 1015 3 4 0.00 0.00
9:09 am 09:09 Cloudy with Rain 45 7.2 44 6.7 97 97 N 18 30 29.94 1014 2 3 0.03 0.76
9:36 am 09:36 Cloudy with Light Rain 45 7.2 44 6.7 97 97 NNE 17 28 29.94 1014 3 5 0.05 1.27
9:53 am 09:53 Cloudy with Light Rain 45 7.2 43 6.1 93 93 N 16 26 29.93 1014 3 4 0.06 1.52
10:05 am 10:05 Cloudy with Rain 45 7.2 44 6.7 97 97 N 18 30 29.94 1014 2 2 0.02 0.51
10:18 am 10:18 Cloudy with Rain 45 7.2 43 6.1 93 93 N 16 26 29.94 1014 2 2 0.05 1.27
10:48 am 10:48 Cloudy with Rain 45 7 43 6 93 93 N 20 31 29.94 1014 2 3 0.14 3.56
10:53 am 10:53 Cloudy with Rain 44 6.7 43 6.1 96 96 N 17 28 29.93 1014 2 3 0.15 3.81
11:27 am 11:27 Cloudy with Rain 44 6.7 43 6.1 96 96 N 20 31 29.94 1014 3 5 0.06 1.52
11:38 am 11:38 Cloudy with Rain 45 7 43 6 93 93 N 17 28 29.91 1013 3 4 0.00 0.00
11:53 am 11:53 Cloudy with Light Rain 44 6.7 43 6.1 96 96 N 22 35 29.89 1012 3 4 0.10 2.54
12:01 pm 12:01 Cloudy with Rain 45 7 43 6 93 93 N 18 30 29.91 1013 3 5 0.00 0.00
12:14 pm 12:14 Cloudy with Rain 44 6.7 43 6.1 96 96 N 18 30 29.91 1013 3 4 0.03 0.76
12:53 pm 12:53 Cloudy with Rain 45 7.2 43 6.1 93 93 N 20 31 29.86 1011 3 5 0.11 2.79
1:53 pm 13:53 Cloudy with Light Rain 45 7.2 44 6.7 97 97 N 21 33 29.82 1010 5 8 0.09 2.29
2:33 pm 14:33 Cloudy with Light Rain 45 7.2 43 6.1 93 93 N 20 31 29.83 1010 4 6 0.02 0.51
2:51 pm 14:51 Cloudy with Rain 45 7 43 6 93 93 N 20 31 29.80 1009 2 3 0.06 1.52
2:53 pm 14:53 Cloudy with Rain 45 7.2 43 6.1 93 93 N 17 28 29.79 1009 2 3 0.07 1.78
3:07 pm 15:07 Cloudy with Rain 45 7.2 44 6.7 97 97 N 17 28 29.80 1009 3 5 0.04 1.02
3:46 pm 15:46 Cloudy with Light Rain 45 7 43 6 93 93 N 18 30 29.77 1008 9 14 0.00 0.00
3:53 pm 15:53 Cloudy with Light Rain 45 7.2 43 6.1 93 93 N 25 41 29.75 1007 7 11 0.07 1.78
4:35 pm 16:35 Cloudy with Light Rain 45 7.2 43 6.1 93 93 N 26 43 29.71 1006 3 4 0.02 0.51
4:42 pm 16:42 Cloudy with Light Rain 45 7 43 6 93 93 N 24 39 29.74 1007 2 3 0.00 0.00
4:53 pm 16:53 Cloudy with Light Rain 44 6.7 43 6.1 96 96 N 24 39 29.72 1007 3 5 0.04 1.02
5:14 pm 17:14 Cloudy with Heavy Rain 44 6.7 42 5.6 93 93 N 22 35 29.74 1007 2 3 0.03 0.76
5:37 pm 17:37 Cloudy with Rain 44 6.7 42 5.6 93 93 N 18 30 29.74 1007 2 2 0.12 3.05
5:48 pm 17:48 Cloudy with Rain 43 6 43 6 100 100 N 23 37 29.77 1008 3 4 0.00 0.00
5:53 pm 17:53 Cloudy with Light Rain 43 6.1 42 5.6 97 97 N 23 37 29.74 1007 3 5 0.14 3.56
6:02 pm 18:02 Cloudy with Light Rain 43 6.1 42 5.6 97 97 N 21 33 29.77 1008 2 3 0.02 0.51
6:10 pm 18:10 Cloudy with Light Rain 43 6 43 6 100 100 N 22 35 29.77 1008 2 3 0.00 0.00
6:39 pm 18:39 Cloudy with Light Rain 43 6.1 41 5 93 93 N 21 33 29.77 1008 2 3 0.07 1.78
6:49 pm 18:49 Cloudy with Light Rain 43 6 43 6 100 100 N 18 30 29.77 1008 3 5 0.07 1.78
6:53 pm 18:53 Cloudy with Light Rain 43 6.1 41 5 93 93 N 23 37 29.75 1008 3 4 0.07 1.78
7:10 pm 19:10 Cloudy with Light Rain 43 6 41 5 93 93 N 23 37 29.77 1008 4 6 0.00 0.00
7:48 pm 19:48 Cloudy with Light Rain 43 6 41 5 93 93 NNW 20 31 29.77 1008 3 4 0.01 0.25
7:53 pm 19:53 Cloudy with Light Rain 42 5.6 41 5 96 96 NNW 20 31 29.77 1008 3 4 0.01 0.25
8:00 pm 20:00 Cloudy with Light Rain 42 5.6 41 5 96 96 NNW 17 28 29.77 1008 3 5 0.01 0.25
8:53 pm 20:53 Cloudy with Light Rain 42 5.6 41 5 96 96 N 18 30 29.77 1008 3 5 0.02 0.51
9:53 pm 21:53 Cloudy with Light Rain 42 5.6 40 4.4 92 92 NNW 18 30 29.78 1008 8 13 0.00 0.03
10:53 pm 22:53 Cloudy 42 5.6 40 4.4 92 92 N 20 31 29.77 1008 10 16 0.00 0.03
11:53 pm 23:53 Cloudy 42 5.6 40 4.4 92 92 NNW 16 26 29.78 1008 10 16 0.00 0.00

Powered by AerisWeather